Regional Weather Roundup
Issued by NWS

Home | Current Version | Previous Version | Text Only | Print | Product List | Glossary Off
Versions: 1 2 3 4 5 6 7 8 9 10 11 12 13 14 15 16 17 18 19 20 21 22 23 24 25 26 27 28 29 30 31 32 33 34 35 36 37 38 39 40 41 42 43 44 45

000
ASUS45 KSLC 011710
RWRUT

UTAH REGIONAL WEATHER ROUNDUP
NATIONAL WEATHER SERVICE SALT LAKE CITY UT
1100 AM MDT WED OCT 01 2014

UTZ001>011-023>025-011800-

NORTHERN UTAH

CITY           SKY/WX    TMP DP  RH WIND       PRES   REMARKS
HILL AFB       PTSUNNY   49  34  56 NW9       30.09R
LOGAN          NOT AVBL
OGDEN          PTSUNNY   50  35  56 NW8       30.08R
PROVO AIRPORT  MOSUNNY   54  34  47 NW12G17   30.09R
SALT LAKE CITY MOSUNNY   53  37  54 W16       30.08R
VERNAL         CLOUDY    47  39  74 NE13      29.99R
WENDOVER       SUNNY     52  30  43 N21G28    30.13S
HEBER CITY     PTSUNNY   46  32  57 N14       30.06R
WEST JORDAN    MOSUNNY   52  32  46 CALM      30.09R

$$

UTZ012>022-026-027-011800-

SOUTHERN UTAH

CITY           SKY/WX    TMP DP  RH WIND       PRES   REMARKS
BRYCE CANYON   MOSUNNY   47  37  68 NW17G24   30.11R
CEDAR CITY     CLOUDY    48  42  80 NE9       30.10R
MILFORD        CLOUDY    52  34  50 N17       30.11R
MOAB/CYNLANDS  CLOUDY    55  47  74 CALM      29.99R
PRICE          MOSUNNY   53  34  48 NW17      30.02S
ST GEORGE      PTSUNNY   70  43  37 SE9       29.98R
KANAB            N/A     61  37  41 CALM      30.04R

$$

REGIONAL REPORTS     COLORADO/ARIZONA

CITY           SKY/WX    TMP DP  RH WIND       PRES   REMARKS
CRAIG, CO      CLOUDY    42  37  82 N5        30.03R
GRAND JUNCTION CLOUDY    50  45  83 SE6       30.01S
RIFLE          LGT RAIN  44  40  85 N3        30.03R
MONTROSE       HVY RAIN  43  41  93 N6        30.07R
CORTEZ         SUNNY     61  38  42 S6        29.99S
PAGE, AZ       NOT AVBL
GRAND CANYON   SUNNY     59  37  44 W7        30.08R
KINGMAN        SUNNY     74  36  25 NW6       29.95R
FLAGSTAFF      SUNNY     58  32  37 NW6       30.11R

$$

REGIONAL REPORTS    NEVADA/IDAHO/WYOMING

CITY           SKY/WX    TMP DP  RH WIND       PRES   REMARKS
LAS VEGAS, NV  SUNNY     77  37  23 NE9       29.90R
ELY            SUNNY     47  27  45 N12       30.17R
ELKO           SUNNY     49  30  48 CALM      30.19R
POCATELLO, ID  MOSUNNY   47  41  80 W17       30.13R
BURLEY         SUNNY     48  38  68 W16       30.13R
EVANSTON, WY   PTSUNNY   40  28  62 NW9       30.08R WCI  34
ROCK SPRINGS   SUNNY     43  29  57 W16       30.02S

$$



USA.gov is the U.S. government's official web portal to all federal, state and local government web resources and services.